Hourly Data Report for September 11, 2013

All times are specified in Local Standard Time (LST). Add 1 hour to adjust for Daylight Saving Time where and when it is observed.

BATHURST A
NEW BRUNSWICK

47°37'47.000" N
65°44'20.000" W
58.80 m
8100505
71574
ZBF

Related Data

No related data is available for this station

Download Data

Hourly Data (September 2013)
Hourly Data Report for September 11, 2013
Temp Definition
°C
Dew Point Temp Definition
°C
Rel Hum Definition
%
Wind Dir Definition
10's deg

Wind Spd Definition
km/h
Visibility Definition
km
Stn Press Definition
kPa
Hmdx Definition


Wind Chill Definition


Weather Definition


TIME
00:00 Legend Double Dagger 13.5 12.4 93 1 3 24.1 101.13     LegendNANA
01:00 Legend Double Dagger 13.4 12.5 94 1 4 24.1 101.08     LegendNANA
02:00 Legend Double Dagger 13.2 12.4 95 10 3 24.1 101.02     Cloudy
03:00 Legend Double Dagger 13.1 12.6 97 9 4 16.1 101.00     Moderate Rain Showers
04:00 Legend Double Dagger 13.0 12.7 98 6 8 9.7 100.94     Rain Showers,Fog
05:00 Legend Double Dagger 13.1 12.8 98 4 8 16.1 100.99     Moderate Rain Showers
06:00 Legend Double Dagger 13.2 13.1 99 8 9 12.9 100.90     Rain Showers
07:00 Legend Double Dagger 13.2 12.6 96 10 6 8.1 100.88     Fog
08:00 Legend Double Dagger 13.5 13.0 97 6 6 6.4 100.77     Fog
09:00 Legend Double Dagger 14.0 13.7 98 10 3 6.4 100.79     Moderate Rain Showers,Fog
10:00 Legend Double Dagger 14.2 13.9 98 5 4 6.4 100.72     Rain Showers,Fog
11:00 Legend Double Dagger 14.3 14.0 98 36 8 6.4 100.70     Rain Showers,Fog
12:00 Legend Double Dagger 14.8 14.7 99 6 7 0.6 100.52     Fog
13:00 Legend Double Dagger 14.6 14.5 99 1 10 1.2 100.54     Fog
14:00 Legend Double Dagger 14.3 14.2 99 5 8 1.6 100.45     Rain Showers,Fog
15:00 Legend Double Dagger 14.4 14.3 99 35 5 1.6 100.40     Fog
16:00 Legend Double Dagger 14.7 14.6 99 36 7 1.0 100.34     Fog
17:00 Legend Double Dagger 14.2 14.1 99 36 6 0.2 100.31     Fog
18:00 Legend Double Dagger 13.4 13.3 99 4 5 0.6 100.36     Moderate Rain Showers,Fog
19:00 Legend Double Dagger 13.5 13.4 99 32 9 0.4 100.36     Fog
20:00 Legend Double Dagger 13.6 13.5 99 2 4 2.4 100.32     Fog
21:00 Legend Double Dagger 13.6 13.5 99 33 10 0.6 100.35     Fog
22:00 Legend Double Dagger 13.8 13.7 99 25 1 3.2 100.35     Fog
23:00 Legend Double Dagger 13.8 13.7 99 17 9 6.4 100.35     Fog

Notes on Data Quality.

Legend

  • E = Estimated
  • M = Missing
  • NA = Not Available
  • ‡ = Partner data that is not subject to review by the National Climate Archives
Date modified: